Valentine, NE

12:01 AM CDT on April 28, 2017 (GMT -0500)
Miller Field

Weather History for KVTN - October, 2012

Change the Weather History Date:

Saturday, October 6, 2012

  Actual Average Record
Temperature  
Mean Temperature 34 °F 52 °F  
Max Temperature 47 °F 67 °F 96 °F (1993)
Min Temperature 21 °F 38 °F 16 °F (1991)
Degree Days  
Heating Degree Days 31 13  
Month to date heating degree days 112 71  
Since 1 July heating degree days 230 256  
Cooling Degree Days 0 0  
Month to date cooling degree days 0 1  
Year to date cooling degree days 1303 818  
Moisture  
Dew Point 16 °F    
Average Humidity 54    
Maximum Humidity 84    
Minimum Humidity 23    
Precipitation  
Precipitation 0.00 in 0.05 in 0.85 in (2016)
Month to date precipitation 0.11 0.32  
Year to date precipitation 9.57 18.07  
Snow  
Snow 0.00 in 0.10 in 2.50 in (1925)
Month to date snowfall T 0.2  
Since 1 July snowfall T 0.9  
Since 1 September snowfall T 0.9  
Snow Depth 0.00 in    
Sea Level Pressure  
Sea Level Pressure 30.42 in    
Wind  
Wind Speed 7 mph (NW)    
Max Wind Speed 15 mph    
Max Gust Speed 22 mph    
Visibility 10 miles    
Events      
T = Trace of Precipitation, MM = Missing Value Source: NWS Daily Summary

Daily Weather History Graph

Daily Weather History Graph

Search for Another Location

Airport or City:

Trip Planner

Search our weather history database for the weather conditions in past years. The results will help you decide how hot, cold, wet, or windy it might be!

Date:

Astronomy

Oct. 06, 2012 Rise Set
Actual Time 7:45 AM CDT 7:13 PM CDT
Civil Twilight 7:17 AM CDT 7:42 PM CDT
Nautical Twilight 6:44 AM CDT 8:14 PM CDT
Astronomical Twilight 6:11 AM CDT 8:47 PM CDT
Moon 11:24 PM CDT (10/6) 1:48 PM CDT (10/6)
Length of Visible Light 12h 24m
Length of Day
11h 28m
Waning Gibbous, 65% of the Moon is Illuminated
Oct 6
Waning Gibbous
Oct 8
Last Quarter
Oct 15
New
Oct 21
First Quarter
Oct 29
Full

Hourly Weather History & Observations

Time (CDT) Temp. Windchill Dew Point Humidity Pressure Visibility Wind Dir Wind Speed Gust Speed Precip Events Conditions
12:52 AM 26.1 °F 19.4 °F 17.1 °F 69% 30.40 in 10.0 mi NW 5.8 mph - N/A   Clear
1:52 AM 25.0 °F - 17.1 °F 72% 30.43 in 10.0 mi North - - N/A   Scattered Clouds
2:52 AM 21.0 °F 16.2 °F 16.0 °F 81% 30.45 in 10.0 mi WNW 3.5 mph - N/A   Clear
3:52 AM 25.0 °F 19.3 °F 17.1 °F 72% 30.43 in 10.0 mi NW 4.6 mph - N/A   Clear
4:52 AM 24.1 °F 17.0 °F 18.0 °F 77% 30.44 in 10.0 mi WSW 5.8 mph - N/A   Clear
5:52 AM 23.0 °F 17.0 °F 17.1 °F 78% 30.44 in 10.0 mi NW 4.6 mph - N/A   Clear
6:52 AM 21.9 °F 15.7 °F 17.1 °F 82% 30.44 in 10.0 mi WNW 4.6 mph - N/A   Clear
7:52 AM 23.0 °F 15.8 °F 18.0 °F 81% 30.46 in 10.0 mi WNW 5.8 mph - N/A   Clear
8:52 AM 25.0 °F 20.7 °F 19.0 °F 78% 30.47 in 10.0 mi WNW 3.5 mph - N/A   Clear
9:52 AM 30.9 °F 26.2 °F 21.0 °F 67% 30.49 in 10.0 mi NNW 4.6 mph - N/A   Scattered Clouds
10:52 AM 35.1 °F 26.4 °F 19.0 °F 52% 30.48 in 10.0 mi North 12.7 mph - N/A   Scattered Clouds
11:52 AM 39.0 °F 31.4 °F 18.0 °F 43% 30.47 in 10.0 mi North 12.7 mph 18.4 mph N/A   Clear
12:52 PM 42.1 °F 36.6 °F 14.0 °F 32% 30.45 in 10.0 mi North 9.2 mph - N/A   Clear
1:52 PM 44.1 °F 37.7 °F 12.9 °F 28% 30.43 in 10.0 mi NNE 12.7 mph - N/A   Clear
2:52 PM 44.6 °F 38.8 °F 14.0 °F 29% 30.33 in 10.0 mi North 11.5 mph 21.9 mph N/A   Partly Cloudy
3:52 PM 46.0 °F 40.6 °F 10.9 °F 24% 30.39 in 10.0 mi NW 11.5 mph 17.3 mph N/A   Clear
4:52 PM 44.1 °F 38.1 °F 10.9 °F 26% 30.38 in 10.0 mi NW 11.5 mph 18.4 mph N/A   Partly Cloudy
5:52 PM 44.1 °F 39.5 °F 12.0 °F 27% 30.38 in 10.0 mi North 8.1 mph - N/A   Mostly Cloudy
6:52 PM 41.0 °F 36.4 °F 14.0 °F 33% 30.38 in 10.0 mi NW 6.9 mph - N/A   Clear
7:52 PM 34.0 °F 29.8 °F 14.0 °F 44% 30.38 in 10.0 mi West 4.6 mph - N/A   Clear
8:52 PM 28.9 °F 22.8 °F 12.9 °F 51% 30.39 in 10.0 mi West 5.8 mph - N/A   Partly Cloudy
9:52 PM 30.0 °F 26.5 °F 15.1 °F 54% 30.37 in 10.0 mi West 3.5 mph - N/A   Clear
10:52 PM 28.0 °F 24.2 °F 16.0 °F 61% 30.37 in 10.0 mi WSW 3.5 mph - N/A   Clear
11:52 PM 28.0 °F 22.8 °F 18.0 °F 66% 30.34 in 10.0 mi West 4.6 mph - N/A   Clear